Regional Weather Roundup
Issued by NWS Albany, NY

Home | Current Version | Previous Version | Graphics & Text | Print | Product List | Glossary On
Versions: 1 2 3 4 5 6 7 8 9 10 11 12 13 14 15 16 17 18 19 20 21 22 23 24 25 26 27 28 29 30 31 32 33 34 35 36 37 38 39 40 41 42 43 44 45 46 47 48 49 50
563
ASUS41 KALY 252310
RWRALY

NEW YORK STATE HOURLY WEATHER ROUNDUP
NATIONAL WEATHER SERVICE ALBANY NY
600 PM EST SAT FEB 25 2017

NOTE: "FAIR" INDICATES FEW OR NO CLOUDS BELOW 12,000 FEET WITH NO
SIGNIFICANT WEATHER AND/OR NO OBSTRUCTIONS TO VISIBILITY.

NYZ032-033-038>043-046>054-057>066-NYZ062>081-082-084-260000-
EAST


CITY           SKY/WX    TMP DP  RH WIND       PRES   REMARKS
ALBANY         RAIN      44  38  79 NW28G40   29.51R
GLENS FALLS    HVY RAIN  53  47  79 W16G23    29.44R
POUGHKEEPSIE   LGT RAIN  62  55  77 S15G23    29.44R
NEWBURGH       TSTM      61  55  82 SW29G48   29.53R FOG
MONTGOMERY     RAIN      49  45  86 NW16G38   29.50R FOG
WHITE PLAINS   CLOUDY    58  54  86 S12       29.49S
ISLIP          FOG       51  51 100 S10       29.53R VSB 1/8
NEW YORK CITY  CLOUDY    57  53  86 S16       29.49R FOG
CENTRAL PARK   CLOUDY    57  56  96 S12G20    29.51S
$$

NYZ005>009-017-018-044>046-055-056-260000-
CENTRAL


CITY           SKY/WX    TMP DP  RH WIND       PRES   REMARKS
FULTON         LGT RAIN  42  34  73 SW10      29.58R
SYRACUSE       LGT RAIN  37  37 100 SW8       29.61R WCI  31
ROME           RAIN      37  36  96 CALM      29.64R FOG
ELMIRA         LGT RAIN  40  34  79 N10       29.60R WCI  33
BINGHAMTON     RAIN      35  34  96 N8        29.56R FOG     WCI  29
MONTICELLO     CLOUDY   N/A N/A N/A W10       29.56R THUNDER
$$

NYZ026>034-041>043-087-260000-
NORTH


CITY           SKY/WX    TMP DP  RH WIND       PRES   REMARKS
WATERTOWN      LGT RAIN  41  36  82 SW16G22   29.54R
FORT DRUM      NOT AVBL
OGDENSBURG     CLOUDY    38  37  93 S6        29.52F WCI  34
MASSENA        LGT RAIN  41  39  93 SW15      29.53R
SARANAC LAKE   TSTM      33  33 100 SW9       29.53S FOG     WCI  25
PLATTSBURGH    HVY RAIN  46  41  82 W13G31    29.46R
$$

NYZ001>004-010>016-019>021-085-260000-
WEST


CITY           SKY/WX    TMP DP  RH WIND       PRES   REMARKS
NIAGARA FALLS  CLOUDY    39  24  55 W24G40    29.60R WCI  28
BUFFALO        CLOUDY    36  27  69 SW21G39   29.61R WCI  25
DUNKIRK        CLOUDY    34  26  72 W22G39    29.68R WCI  22
JAMESTOWN      CLOUDY    28  21  74 W20G30    29.64R WCI  15
WELLSVILLE     FLURRIES  33  26  75 NW17G29   29.59R WCI  22
ROCHESTER      MOCLDY    39  28  64 W24G32    29.59R WCI  28
PENN YAN       CLOUDY    39  29  67 W9G25     29.60R WCI  33
$$

             KEY
       WCI = WIND CHILL INDEX
       VSB = VISIBILITY
       HX  = HEAT INDEX
$$




USA.gov is the U.S. government's official web portal to all federal, state and local government web resources and services.